Time,TemperatureF,DewpointF,PressureIn,WindDirection,WindDirectionDegrees,WindSpeedMPH,WindSpeedGustMPH,Humidity,HourlyPrecipIn,Conditions,Clouds,dailyrainin,SoftwareType,DateUTC
2013-02-14 00:00:00,40.5,30.4,29.52,West,262,2.0,13.0,67,0.00,,,0.00,Wunderground v.1.15,2013-02-14 06:00:00,
2013-02-14 00:10:00,40.3,30.2,29.52,West,260,2.0,13.0,67,0.00,,,0.00,Wunderground v.1.15,2013-02-14 06:10:00,
2013-02-14 00:20:00,40.3,30.2,29.52,West,263,3.0,13.0,67,0.00,,,0.00,Wunderground v.1.15,2013-02-14 06:20:00,
2013-02-14 00:30:00,40.2,30.1,29.52,WSW,252,3.0,13.0,67,0.00,,,0.00,Wunderground v.1.15,2013-02-14 06:30:00,
2013-02-14 00:40:00,40.3,30.2,29.52,WSW,258,5.0,13.0,67,0.00,,,0.00,Wunderground v.1.15,2013-02-14 06:40:00,
2013-02-14 00:50:00,40.3,30.2,29.52,West,260,5.0,13.0,67,0.00,,,0.00,Wunderground v.1.15,2013-02-14 06:50:00,
2013-02-14 01:00:00,40.2,30.1,29.52,West,280,5.0,5.0,67,0.00,,,0.00,Wunderground v.1.15,2013-02-14 07:00:00,
2013-02-14 01:10:00,40.2,30.1,29.52,West,259,4.0,4.0,67,0.00,,,0.00,Wunderground v.1.15,2013-02-14 07:10:00,
2013-02-14 01:20:00,40.1,30.0,29.52,West,264,5.0,13.0,67,0.00,,,0.00,Wunderground v.1.15,2013-02-14 07:20:00,
2013-02-14 01:30:00,39.8,30.1,29.52,West,262,5.0,5.0,68,0.00,,,0.00,Wunderground v.1.15,2013-02-14 07:30:00,
2013-02-14 01:40:00,39.5,30.2,29.52,West,274,5.0,5.0,69,0.00,,,0.00,Wunderground v.1.15,2013-02-14 07:40:00,
2013-02-14 01:45:00,39.3,30.0,29.53,West,275,5.0,13.0,69,0.00,,,0.00,Wunderground v.1.15,2013-02-14 07:45:00,
2013-02-14 01:55:00,39.0,30.0,29.52,WSW,253,3.0,13.0,70,0.00,,,0.00,Wunderground v.1.15,2013-02-14 07:55:00,
2013-02-14 02:00:00,38.7,30.1,29.52,WSW,257,4.0,4.0,71,0.00,,,0.00,Wunderground v.1.15,2013-02-14 08:00:00,
2013-02-14 02:10:00,38.5,30.3,29.52,West,260,3.0,3.0,72,0.00,,,0.00,Wunderground v.1.15,2013-02-14 08:10:00,
2013-02-14 02:20:00,37.8,29.9,29.53,WSW,257,1.0,13.0,73,0.00,,,0.00,Wunderground v.1.15,2013-02-14 08:20:00,
2013-02-14 02:30:00,37.5,30.0,29.53,WSW,255,2.0,2.0,74,0.00,,,0.00,Wunderground v.1.15,2013-02-14 08:30:00,
2013-02-14 02:40:00,37.4,29.5,29.53,WSW,253,1.0,13.0,73,0.00,,,0.00,Wunderground v.1.15,2013-02-14 08:40:00,
2013-02-14 02:50:00,37.2,29.7,29.53,WSW,250,2.0,2.0,74,0.00,,,0.00,Wunderground v.1.15,2013-02-14 08:50:00,
2013-02-14 03:01:00,36.8,29.6,29.52,WSW,255,2.0,13.0,75,0.00,,,0.00,Wunderground v.1.15,2013-02-14 09:01:00,
2013-02-14 03:10:00,36.5,29.7,29.52,West,264,2.0,13.0,76,0.00,,,0.00,Wunderground v.1.15,2013-02-14 09:10:00,
2013-02-14 03:20:00,36.4,29.6,29.52,WSW,245,2.0,13.0,76,0.00,,,0.00,Wunderground v.1.15,2013-02-14 09:20:00,
2013-02-14 03:30:00,36.2,29.4,29.52,WSW,255,2.0,13.0,76,0.00,,,0.00,Wunderground v.1.15,2013-02-14 09:30:00,
2013-02-14 03:40:00,36.2,29.0,29.51,WSW,258,2.0,13.0,75,0.00,,,0.00,Wunderground v.1.15,2013-02-14 09:40:00,
2013-02-14 03:50:00,35.9,28.7,29.51,WSW,240,3.0,13.0,75,0.00,,,0.00,Wunderground v.1.15,2013-02-14 09:50:00,
2013-02-14 04:05:00,35.5,28.4,29.51,WSW,255,2.0,13.0,75,0.00,,,0.00,Wunderground v.1.15,2013-02-14 10:05:00,
2013-02-14 04:10:00,35.6,28.5,29.52,WSW,255,3.0,13.0,75,0.00,,,0.00,Wunderground v.1.15,2013-02-14 10:10:00,
2013-02-14 04:15:00,35.5,28.0,29.52,WSW,243,3.0,13.0,74,0.00,,,0.00,Wunderground v.1.15,2013-02-14 10:15:00,
2013-02-14 04:20:00,35.5,28.0,29.52,West,266,2.0,13.0,74,0.00,,,0.00,Wunderground v.1.15,2013-02-14 10:20:00,
2013-02-14 04:30:00,35.4,27.9,29.52,West,260,2.0,13.0,74,0.00,,,0.00,Wunderground v.1.15,2013-02-14 10:30:00,
2013-02-14 04:40:00,35.5,28.0,29.52,West,262,3.0,13.0,74,0.00,,,0.00,Wunderground v.1.15,2013-02-14 10:40:00,
2013-02-14 04:50:00,35.3,27.8,29.52,WSW,252,1.0,13.0,74,0.00,,,0.00,Wunderground v.1.15,2013-02-14 10:50:00,
2013-02-14 04:55:00,35.2,27.7,29.52,WSW,256,2.0,13.0,74,0.00,,,0.00,Wunderground v.1.15,2013-02-14 10:55:00,
2013-02-14 05:00:00,35.2,27.7,29.52,SW,224,2.0,13.0,74,0.00,,,0.00,Wunderground v.1.15,2013-02-14 11:00:00,
2013-02-14 05:10:00,35.2,28.1,29.52,WSW,240,3.0,13.0,75,0.00,,,0.00,Wunderground v.1.15,2013-02-14 11:10:00,
2013-02-14 05:15:00,35.2,27.7,29.52,WSW,246,3.0,13.0,74,0.00,,,0.00,Wunderground v.1.15,2013-02-14 11:15:00,
2013-02-14 05:25:00,35.2,27.4,29.52,West,259,3.0,4.0,73,0.00,,,0.00,Wunderground v.1.15,2013-02-14 11:25:00,
2013-02-14 05:30:00,35.3,27.5,29.52,WSW,245,4.0,13.0,73,0.00,,,0.00,Wunderground v.1.15,2013-02-14 11:30:00,
2013-02-14 05:40:00,35.4,27.3,29.52,WSW,250,5.0,13.0,72,0.00,,,0.00,Wunderground v.1.15,2013-02-14 11:40:00,
2013-02-14 05:50:00,35.6,27.5,29.53,WSW,257,6.0,13.0,72,0.00,,,0.00,Wunderground v.1.15,2013-02-14 11:50:00,
2013-02-14 06:00:00,35.6,27.5,29.53,West,259,7.0,13.0,72,0.00,,,0.00,Wunderground v.1.15,2013-02-14 12:00:00,
2013-02-14 06:10:00,35.6,27.5,29.53,WSW,252,7.0,13.0,72,0.00,,,0.00,Wunderground v.1.15,2013-02-14 12:10:00,
2013-02-14 06:20:00,35.5,27.0,29.53,WSW,243,6.0,13.0,71,0.00,,,0.00,Wunderground v.1.15,2013-02-14 12:20:00,
2013-02-14 06:30:00,35.4,27.3,29.53,WSW,250,6.0,6.0,72,0.00,,,0.00,Wunderground v.1.15,2013-02-14 12:30:00,
2013-02-14 06:35:00,35.3,27.2,29.53,WSW,253,5.0,13.0,72,0.00,,,0.00,Wunderground v.1.15,2013-02-14 12:35:00,
2013-02-14 06:45:00,35.2,27.1,29.54,WSW,256,5.0,13.0,72,0.00,,,0.00,Wunderground v.1.15,2013-02-14 12:45:00,
2013-02-14 06:55:00,35.0,27.2,29.54,West,260,5.0,13.0,73,0.00,,,0.00,Wunderground v.1.15,2013-02-14 12:55:00,
2013-02-14 07:00:00,34.9,27.5,29.55,West,266,3.0,13.0,74,0.00,,,0.00,Wunderground v.1.15,2013-02-14 13:00:00,
2013-02-14 07:10:00,34.7,27.3,29.56,West,260,3.0,13.0,74,0.00,,,0.00,Wunderground v.1.15,2013-02-14 13:10:00,
2013-02-14 07:20:00,34.7,27.3,29.56,West,259,2.0,2.0,74,0.00,,,0.00,Wunderground v.1.15,2013-02-14 13:20:00,
2013-02-14 07:30:00,35.1,27.6,29.56,WSW,253,2.0,13.0,74,0.00,,,0.00,Wunderground v.1.15,2013-02-14 13:30:00,
2013-02-14 07:40:00,35.4,27.6,29.56,WSW,248,4.0,4.0,73,0.00,,,0.00,Wunderground v.1.15,2013-02-14 13:40:00,
2013-02-14 07:50:00,35.9,28.1,29.57,West,263,5.0,5.0,73,0.00,,,0.00,Wunderground v.1.15,2013-02-14 13:50:00,
2013-02-14 08:00:00,36.4,28.2,29.57,WSW,249,4.0,13.0,72,0.00,,,0.00,Wunderground v.1.15,2013-02-14 14:00:00,
2013-02-14 08:10:00,37.0,28.5,29.57,WSW,250,4.0,13.0,71,0.00,,,0.00,Wunderground v.1.15,2013-02-14 14:10:00,
2013-02-14 08:20:00,37.5,28.9,29.58,WSW,249,5.0,5.0,71,0.00,,,0.00,Wunderground v.1.15,2013-02-14 14:20:00,
2013-02-14 08:30:00,38.3,30.1,29.59,West,277,4.0,4.0,72,0.00,,,0.00,Wunderground v.1.15,2013-02-14 14:30:00,
2013-02-14 09:25:00,42.7,31.7,29.60,WNW,292,3.0,3.0,65,0.00,,,0.00,Wunderground v.1.15,2013-02-14 15:25:00,
2013-02-14 09:35:00,43.2,31.1,29.60,WNW,293,4.0,4.0,62,0.00,,,0.00,Wunderground v.1.15,2013-02-14 15:35:00,
2013-02-14 09:40:00,43.6,31.4,29.60,WNW,290,4.0,4.0,62,0.00,,,0.00,Wunderground v.1.15,2013-02-14 15:40:00,
2013-02-14 09:50:00,44.8,31.3,29.60,NW,317,3.0,4.0,59,0.00,,,0.00,Wunderground v.1.15,2013-02-14 15:50:00,
2013-02-14 10:05:00,46.3,31.4,29.60,WNW,292,3.0,7.0,56,0.00,,,0.00,Wunderground v.1.15,2013-02-14 16:05:00,
2013-02-14 10:15:00,47.2,31.4,29.60,NNW,339,3.0,7.0,54,0.00,,,0.00,Wunderground v.1.15,2013-02-14 16:15:00,
2013-02-14 10:20:00,47.5,31.7,29.60,NNE,23,3.0,7.0,54,0.00,,,0.00,Wunderground v.1.15,2013-02-14 16:20:00,
2013-02-14 10:30:00,48.7,32.3,29.60,WNW,291,3.0,7.0,53,0.00,,,0.00,Wunderground v.1.15,2013-02-14 16:30:00,
2013-02-14 10:40:00,49.2,31.8,29.61,North,351,4.0,7.0,51,0.00,,,0.00,Wunderground v.1.15,2013-02-14 16:40:00,
2013-02-14 10:50:00,49.8,32.9,29.61,SW,231,4.0,7.0,52,0.00,,,0.00,Wunderground v.1.15,2013-02-14 16:50:00,
2013-02-14 11:05:00,50.1,32.7,29.61,ENE,73,2.0,7.0,51,0.00,,,0.00,Wunderground v.1.15,2013-02-14 17:05:00,
2013-02-14 11:15:00,50.6,32.6,29.61,NE,36,3.0,7.0,50,0.00,,,0.00,Wunderground v.1.15,2013-02-14 17:15:00,
2013-02-14 11:25:00,51.1,33.6,29.61,NNE,13,4.0,7.0,51,0.00,,,0.00,Wunderground v.1.15,2013-02-14 17:25:00,
2013-02-14 11:30:00,51.2,33.7,29.61,NE,47,5.0,7.0,51,0.00,,,0.00,Wunderground v.1.15,2013-02-14 17:30:00,
2013-02-14 11:35:00,51.4,33.4,29.60,East,87,4.0,4.0,50,0.00,,,0.00,Wunderground v.1.15,2013-02-14 17:35:00,
2013-02-14 11:45:00,51.9,33.3,29.60,NE,56,4.0,7.0,49,0.00,,,0.00,Wunderground v.1.15,2013-02-14 17:45:00,
2013-02-14 11:55:00,52.2,34.1,29.60,ENE,58,4.0,7.0,50,0.00,,,0.00,Wunderground v.1.15,2013-02-14 17:55:00,
2013-02-14 12:00:00,52.0,33.9,29.60,NE,50,4.0,4.0,50,0.00,,,0.00,Wunderground v.1.15,2013-02-14 18:00:00,
2013-02-14 12:10:00,52.7,34.1,29.60,East,82,4.0,4.0,49,0.00,,,0.00,Wunderground v.1.15,2013-02-14 18:10:00,
2013-02-14 12:20:00,52.9,34.2,29.59,WNW,284,4.0,4.0,49,0.00,,,0.00,Wunderground v.1.15,2013-02-14 18:20:00,
2013-02-14 12:30:00,53.8,34.0,29.59,NNW,337,3.0,3.0,47,0.00,,,0.00,Wunderground v.1.15,2013-02-14 18:30:00,
2013-02-14 12:40:00,53.9,35.2,29.59,WNW,297,3.0,3.0,49,0.00,,,0.00,Wunderground v.1.15,2013-02-14 18:40:00,
2013-02-14 12:50:00,54.7,34.8,29.59,NE,52,3.0,3.0,47,0.00,,,0.00,Wunderground v.1.15,2013-02-14 18:50:00,
2013-02-14 13:05:00,56.1,35.0,29.58,West,273,2.0,7.0,45,0.00,,,0.00,Wunderground v.1.15,2013-02-14 19:05:00,
2013-02-14 13:15:00,56.6,35.5,29.58,WNW,297,2.0,7.0,45,0.00,,,0.00,Wunderground v.1.15,2013-02-14 19:15:00,
2013-02-14 13:20:00,55.8,34.2,29.58,NE,36,4.0,7.0,44,0.00,,,0.00,Wunderground v.1.15,2013-02-14 19:20:00,
2013-02-14 13:30:00,56.7,36.1,29.58,NW,319,2.0,4.0,46,0.00,,,0.00,Wunderground v.1.15,2013-02-14 19:30:00,
2013-02-14 13:40:00,57.0,35.3,29.57,NW,317,3.0,7.0,44,0.00,,,0.00,Wunderground v.1.15,2013-02-14 19:40:00,
2013-02-14 13:50:00,56.8,35.1,29.57,ENE,58,3.0,7.0,44,0.00,,,0.00,Wunderground v.1.15,2013-02-14 19:50:00,
2013-02-14 13:55:00,58.0,35.6,29.57,NE,44,1.0,7.0,43,0.00,,,0.00,Wunderground v.1.15,2013-02-14 19:55:00,
2013-02-14 14:05:00,57.2,34.9,29.57,NE,51,4.0,4.0,43,0.00,,,0.00,Wunderground v.1.15,2013-02-14 20:05:00,
2013-02-14 14:10:00,57.1,35.4,29.56,NW,321,4.0,7.0,44,0.00,,,0.00,Wunderground v.1.15,2013-02-14 20:10:00,
2013-02-14 14:20:00,57.9,35.5,29.56,WNW,303,4.0,9.0,43,0.00,,,0.00,Wunderground v.1.15,2013-02-14 20:20:00,
2013-02-14 14:30:00,58.1,35.7,29.56,NW,317,3.0,7.0,43,0.00,,,0.00,Wunderground v.1.15,2013-02-14 20:30:00,
2013-02-14 14:40:00,57.5,35.7,29.56,NNW,336,5.0,7.0,44,0.00,,,0.00,Wunderground v.1.15,2013-02-14 20:40:00,
2013-02-14 14:50:00,57.8,36.0,29.56,NNE,13,3.0,9.0,44,0.00,,,0.00,Wunderground v.1.15,2013-02-14 20:50:00,
2013-02-14 15:05:00,58.0,36.2,29.56,WNW,300,6.0,6.0,44,0.00,,,0.00,Wunderground v.1.15,2013-02-14 21:05:00,
2013-02-14 15:15:00,58.2,35.8,29.56,NNE,33,5.0,5.0,43,0.00,,,0.00,Wunderground v.1.15,2013-02-14 21:15:00,
2013-02-14 15:25:00,58.0,35.0,29.56,NE,46,6.0,7.0,42,0.00,,,0.00,Wunderground v.1.15,2013-02-14 21:25:00,
2013-02-14 15:35:00,58.2,35.8,29.56,North,354,6.0,6.0,43,0.00,,,0.00,Wunderground v.1.15,2013-02-14 21:35:00,
2013-02-14 15:45:00,58.0,35.6,29.56,NE,50,5.0,7.0,43,0.00,,,0.00,Wunderground v.1.15,2013-02-14 21:45:00,
2013-02-14 15:55:00,57.8,35.4,29.56,NE,36,7.0,10.0,43,0.00,,,0.00,Wunderground v.1.15,2013-02-14 21:55:00,
2013-02-14 16:00:00,57.7,35.3,29.56,NE,46,6.0,6.0,43,0.00,,,0.00,Wunderground v.1.15,2013-02-14 22:00:00,
2013-02-14 16:10:00,57.8,34.8,29.56,NNE,22,5.0,8.0,42,0.00,,,0.00,Wunderground v.1.15,2013-02-14 22:10:00,
2013-02-14 16:20:00,57.7,34.7,29.57,NNE,29,6.0,8.0,42,0.00,,,0.00,Wunderground v.1.15,2013-02-14 22:20:00,
2013-02-14 16:30:00,57.7,34.7,29.57,NE,40,5.0,5.0,42,0.00,,,0.00,Wunderground v.1.15,2013-02-14 22:30:00,
2013-02-14 16:40:00,58.1,35.1,29.57,NNW,331,5.0,7.0,42,0.00,,,0.00,Wunderground v.1.15,2013-02-14 22:40:00,
2013-02-14 16:50:00,57.9,34.9,29.57,NW,317,6.0,6.0,42,0.00,,,0.00,Wunderground v.1.15,2013-02-14 22:50:00,
2013-02-14 17:00:00,57.4,34.5,29.58,NE,41,5.0,7.0,42,0.00,,,0.00,Wunderground v.1.15,2013-02-14 23:00:00,
2013-02-14 17:10:00,57.3,35.0,29.58,NE,43,5.0,7.0,43,0.00,,,0.00,Wunderground v.1.15,2013-02-14 23:10:00,
2013-02-14 17:20:00,57.2,34.3,29.59,NNW,334,6.0,7.0,42,0.00,,,0.00,Wunderground v.1.15,2013-02-14 23:20:00,
2013-02-14 17:25:00,57.1,34.8,29.59,ENE,58,6.0,10.0,43,0.00,,,0.00,Wunderground v.1.15,2013-02-14 23:25:00,
2013-02-14 17:35:00,56.2,35.1,29.59,NE,46,6.0,10.0,45,0.00,,,0.00,Wunderground v.1.15,2013-02-14 23:35:00,
2013-02-14 17:45:00,55.3,33.7,29.60,NE,50,6.0,12.0,44,0.00,,,0.00,Wunderground v.1.15,2013-02-14 23:45:00,
2013-02-14 17:55:00,54.7,33.2,29.60,NNE,22,7.0,12.0,44,0.00,,,0.00,Wunderground v.1.15,2013-02-14 23:55:00,
2013-02-14 18:00:00,54.4,32.9,29.61,NNW,329,6.0,6.0,44,0.00,,,0.00,Wunderground v.1.15,2013-02-15 00:00:00,
2013-02-14 18:10:00,54.1,33.2,29.61,NE,51,5.0,5.0,45,0.00,,,0.00,Wunderground v.1.15,2013-02-15 00:10:00,
2013-02-14 18:20:00,53.8,33.5,29.62,NNW,337,4.0,8.0,46,0.00,,,0.00,Wunderground v.1.15,2013-02-15 00:20:00,
2013-02-14 18:30:00,53.5,33.2,29.63,NNE,13,4.0,7.0,46,0.00,,,0.00,Wunderground v.1.15,2013-02-15 00:30:00,
2013-02-14 18:40:00,53.3,33.0,29.64,North,1,3.0,3.0,46,0.00,,,0.00,Wunderground v.1.15,2013-02-15 00:40:00,
2013-02-14 18:50:00,53.0,32.8,29.64,NE,36,4.0,7.0,46,0.00,,,0.00,Wunderground v.1.15,2013-02-15 00:50:00,
2013-02-14 19:00:00,52.6,32.4,29.64,NNW,331,3.0,3.0,46,0.00,,,0.00,Wunderground v.1.15,2013-02-15 01:00:00,
2013-02-14 19:10:00,52.3,32.6,29.64,NNE,27,2.0,2.0,47,0.00,,,0.00,Wunderground v.1.15,2013-02-15 01:10:00,
2013-02-14 19:15:00,52.1,32.5,29.65,NE,40,1.0,7.0,47,0.00,,,0.00,Wunderground v.1.15,2013-02-15 01:15:00,
2013-02-14 19:25:00,51.7,32.6,29.65,NNW,327,2.0,7.0,48,0.00,,,0.00,Wunderground v.1.15,2013-02-15 01:25:00,
2013-02-14 19:35:00,51.3,32.8,29.65,North,354,2.0,7.0,49,0.00,,,0.00,Wunderground v.1.15,2013-02-15 01:35:00,
2013-02-14 19:45:00,51.0,32.5,29.66,NNE,18,2.0,7.0,49,0.00,,,0.00,Wunderground v.1.15,2013-02-15 01:45:00,
2013-02-14 19:55:00,50.8,32.3,29.67,North,351,2.0,7.0,49,0.00,,,0.00,Wunderground v.1.15,2013-02-15 01:55:00,
2013-02-14 20:05:00,50.7,33.2,29.67,NNE,12,6.0,12.0,51,0.00,,,0.00,Wunderground v.1.15,2013-02-15 02:05:00,
2013-02-14 20:10:00,50.8,33.3,29.67,NNE,26,7.0,12.0,51,0.00,,,0.00,Wunderground v.1.15,2013-02-15 02:10:00,
2013-02-14 20:20:00,50.6,33.6,29.67,NW,321,6.0,8.0,52,0.00,,,0.00,Wunderground v.1.15,2013-02-15 02:20:00,
2013-02-14 20:30:00,50.4,33.4,29.67,NE,36,6.0,7.0,52,0.00,,,0.00,Wunderground v.1.15,2013-02-15 02:30:00,
2013-02-14 20:40:00,50.3,33.3,29.68,NE,50,5.0,5.0,52,0.00,,,0.00,Wunderground v.1.15,2013-02-15 02:40:00,
2013-02-14 20:50:00,50.2,33.2,29.68,North,354,6.0,7.0,52,0.00,,,0.00,Wunderground v.1.15,2013-02-15 02:50:00,
2013-02-14 21:05:00,50.1,32.7,29.69,NNE,13,5.0,7.0,51,0.00,,,0.00,Wunderground v.1.15,2013-02-15 03:05:00,
2013-02-14 21:15:00,50.0,32.6,29.69,NNE,21,5.0,5.0,51,0.00,,,0.00,Wunderground v.1.15,2013-02-15 03:15:00,
2013-02-14 21:25:00,50.0,32.1,29.69,NNE,19,7.0,13.0,50,0.00,,,0.00,Wunderground v.1.15,2013-02-15 03:25:00,
2013-02-14 21:35:00,49.9,32.5,29.70,NW,321,9.0,12.0,51,0.00,,,0.00,Wunderground v.1.15,2013-02-15 03:35:00,
2013-02-14 21:45:00,49.7,32.3,29.70,NE,37,11.0,11.0,51,0.00,,,0.00,Wunderground v.1.15,2013-02-15 03:45:00,
2013-02-14 21:55:00,49.5,32.6,29.71,NNW,342,8.0,8.0,52,0.00,,,0.00,Wunderground v.1.15,2013-02-15 03:55:00,
2013-02-14 22:00:00,49.4,32.5,29.71,NW,323,7.0,9.0,52,0.00,,,0.00,Wunderground v.1.15,2013-02-15 04:00:00,
2013-02-14 22:10:00,49.2,32.8,29.71,WNW,303,7.0,8.0,53,0.00,,,0.00,Wunderground v.1.15,2013-02-15 04:10:00,
2013-02-14 22:20:00,48.9,32.5,29.72,NW,325,10.0,10.0,53,0.00,,,0.00,Wunderground v.1.15,2013-02-15 04:20:00,
2013-02-14 22:30:00,48.4,32.5,29.73,WNW,300,11.0,13.0,54,0.00,,,0.00,Wunderground v.1.15,2013-02-15 04:30:00,
2013-02-14 22:40:00,48.2,31.4,29.73,ESE,115,9.0,9.0,52,0.00,,,0.00,Wunderground v.1.15,2013-02-15 04:40:00,
2013-02-14 22:50:00,47.4,32.5,29.74,NW,304,10.0,10.0,56,0.00,,,0.00,Wunderground v.1.15,2013-02-15 04:50:00,
2013-02-14 23:00:00,45.8,33.9,29.74,NNW,345,12.0,12.0,63,0.00,,,0.00,Wunderground v.1.15,2013-02-15 05:00:00,
2013-02-14 23:05:00,45.4,33.9,29.74,NNW,335,12.0,17.0,64,0.00,,,0.00,Wunderground v.1.15,2013-02-15 05:05:00,
2013-02-14 23:10:00,45.2,33.7,29.74,NE,46,11.0,11.0,64,0.00,,,0.00,Wunderground v.1.15,2013-02-15 05:10:00,
2013-02-14 23:20:00,45.2,33.7,29.74,NW,309,6.0,17.0,64,0.00,,,0.00,Wunderground v.1.15,2013-02-15 05:20:00,
2013-02-14 23:30:00,45.5,33.2,29.74,NW,325,4.0,4.0,62,0.00,,,0.00,Wunderground v.1.15,2013-02-15 05:30:00,
2013-02-14 23:40:00,45.6,32.9,29.74,WNW,297,2.0,2.0,61,0.00,,,0.00,Wunderground v.1.15,2013-02-15 05:40:00,
2013-02-14 23:45:00,45.6,32.5,29.74,NNW,329,2.0,3.0,60,0.00,,,0.00,Wunderground v.1.15,2013-02-15 05:45:00,
2013-02-14 23:55:00,45.7,32.2,29.74,NNW,327,2.0,17.0,59,0.00,,,0.00,Wunderground v.1.15,2013-02-15 05:55:00,